Tehachapi, CA

4:28 PM PDT on April 30, 2017 (GMT -0700)
Tehachapi Municipal

Weather History for KTSP - April, 2012

Change the Weather History Date:

Wednesday, April 4, 2012

  Actual Average Record
Temperature  
Mean Temperature 42 °F -  
Max Temperature 48 °F 62 °F 68 °F (2017)
Min Temperature 37 °F 35 °F 32 °F (2015)
Degree Days  
Heating Degree Days 22    
Moisture  
Dew Point 39 °F    
Average Humidity 87    
Maximum Humidity 100    
Minimum Humidity 66    
Precipitation  
Precipitation 0.00 in - - ()
Sea Level Pressure  
Sea Level Pressure 30.05 in    
Wind  
Wind Speed 13 mph (WNW)    
Max Wind Speed 23 mph    
Max Gust Speed 32 mph    
Visibility 4 miles    
Events Fog , Rain    
Averages and records for this station are not official NWS values.
T = Trace of Precipitation, MM = Missing Value Source: NWS Daily Summary

Daily Weather History Graph

Daily Weather History Graph

Search for Another Location

Airport or City:

Trip Planner

Search our weather history database for the weather conditions in past years. The results will help you decide how hot, cold, wet, or windy it might be!

Date:

Astronomy

Apr. 04, 2012 Rise Set
Actual Time 6:35 AM PDT 7:18 PM PDT
Civil Twilight 6:09 AM PDT 7:43 PM PDT
Nautical Twilight 5:39 AM PDT 8:14 PM PDT
Astronomical Twilight 5:08 AM PDT 8:45 PM PDT
Moon 5:20 PM PDT (4/4) 4:55 AM PDT (4/4)
Length of Visible Light 13h 33m
Length of Day
12h 42m
Waxing Gibbous, 94% of the Moon is Illuminated
Apr 4
Waxing Gibbous
Apr 6
Full
Apr 13
Last Quarter
Apr 21
New
Apr 29
First Quarter

Hourly Weather History & Observations

Time (PDT) Temp. Windchill Dew Point Humidity Pressure Visibility Wind Dir Wind Speed Gust Speed Precip Events Conditions
12:15 AM 44.6 °F 40.7 °F 37.4 °F 76% 30.07 in 7.0 mi WNW 6.9 mph - N/A   Clear
12:35 AM 46.4 °F 41.5 °F 39.2 °F 76% 30.06 in 7.0 mi WNW 10.4 mph - N/A   Clear
12:55 AM 44.6 °F 41.4 °F 37.4 °F 76% 30.05 in 8.0 mi NW 5.8 mph - N/A   Clear
1:15 AM 42.8 °F 41.1 °F 37.4 °F 81% 30.04 in 7.0 mi NNW 3.5 mph - N/A   Clear
1:35 AM 42.8 °F - 37.4 °F 81% 30.03 in 8.0 mi Calm Calm - N/A   Clear
1:55 AM 44.6 °F 43.1 °F 37.4 °F 76% 30.03 in 8.0 mi West 3.5 mph - N/A   Clear
2:15 AM 44.6 °F 37.4 °F 37.4 °F 76% 30.04 in 8.0 mi WNW 16.1 mph - N/A   Clear
2:35 AM 48.2 °F - 37.4 °F 66% 30.05 in 9.0 mi West 12.7 mph - N/A   Clear
2:55 AM 46.4 °F 40.4 °F 37.4 °F 71% 30.05 in 8.0 mi West 13.8 mph - N/A   Clear
3:15 AM 46.4 °F 39.5 °F 39.2 °F 76% 30.05 in 8.0 mi WNW 17.3 mph - N/A   Clear
3:35 AM 46.4 °F 39.0 °F 37.4 °F 71% 30.04 in 8.0 mi West 19.6 mph - N/A   Clear
3:55 AM 46.4 °F 39.8 °F 39.2 °F 76% 30.04 in 8.0 mi WNW 16.1 mph - N/A   Partly Cloudy
4:15 AM 46.4 °F 39.8 °F 39.2 °F 76% 30.05 in 7.0 mi WNW 16.1 mph 23.0 mph N/A   Mostly Cloudy
4:35 AM 46.4 °F 39.2 °F 39.2 °F 76% 30.04 in 7.0 mi WNW 18.4 mph 21.9 mph N/A   Overcast
4:55 AM 44.6 °F 37.8 °F 39.2 °F 81% 30.04 in 7.0 mi WNW 15.0 mph - N/A   Overcast
5:15 AM 44.6 °F 37.4 °F 39.2 °F 81% 30.04 in 6.0 mi West 16.1 mph 20.7 mph N/A   Haze
5:55 AM 44.6 °F 36.6 °F 39.2 °F 81% 30.05 in 5.0 mi West 19.6 mph - N/A   Overcast
6:15 AM 42.8 °F 34.3 °F 39.2 °F 87% 30.05 in 4.0 mi West 19.6 mph 23.0 mph N/A   Overcast
6:35 AM 41.0 °F 31.9 °F 41.0 °F 100% 30.05 in 2.5 mi West 19.6 mph - N/A   Overcast
6:55 AM 41.0 °F 31.1 °F 41.0 °F 100% 30.06 in 1.2 mi WNW 23.0 mph 27.6 mph N/A   Overcast
7:15 AM 41.0 °F 31.6 °F 41.0 °F 100% 30.07 in 0.2 mi West 20.7 mph 27.6 mph N/A Rain Light Rain
7:35 AM 41.0 °F 31.1 °F 41.0 °F 100% 30.07 in 0.2 mi West 23.0 mph 27.6 mph N/A Rain Light Rain
8:15 AM 39.2 °F 29.6 °F 39.2 °F 100% 30.07 in 0.2 mi WNW 19.6 mph 32.2 mph N/A Rain Light Rain
8:35 AM 41.0 °F 31.6 °F 41.0 °F 100% 30.07 in 0.2 mi West 20.7 mph 29.9 mph N/A Rain Light Rain
8:55 AM 41.0 °F 31.4 °F 41.0 °F 100% 30.07 in 0.2 mi West 21.9 mph 26.5 mph N/A Rain Light Rain
9:15 AM 41.0 °F 32.2 °F 41.0 °F 100% 30.08 in 0.8 mi West 18.4 mph 25.3 mph N/A   Overcast
9:35 AM 41.0 °F 33.1 °F 41.0 °F 100% 30.08 in 3.0 mi West 15.0 mph 20.7 mph N/A   Overcast
9:55 AM 41.0 °F 34.3 °F 41.0 °F 100% 30.08 in 0.2 mi WNW 11.5 mph 17.3 mph N/A Rain Light Rain
10:15 AM 41.0 °F 33.5 °F 41.0 °F 100% 30.08 in 0.2 mi NW 13.8 mph - N/A Fog Fog
10:35 AM 39.2 °F 31.6 °F 39.2 °F 100% 30.09 in 0.2 mi WNW 12.7 mph 19.6 mph N/A Rain Light Rain
10:55 AM 39.2 °F 32.0 °F 39.2 °F 100% 30.08 in 0.2 mi WNW 11.5 mph 16.1 mph N/A Fog Fog
11:15 AM 39.2 °F 31.6 °F 39.2 °F 100% 30.08 in 0.2 mi NW 12.7 mph - N/A Rain Light Rain
11:55 AM 41.0 °F 32.8 °F 41.0 °F 100% 30.07 in 0.2 mi NW 16.1 mph - N/A Fog Fog
12:15 PM 39.2 °F 30.5 °F 39.2 °F 100% 30.07 in 0.2 mi NW 16.1 mph 21.9 mph N/A Rain Light Rain
12:35 PM 39.2 °F 30.8 °F 39.2 °F 100% 30.07 in 0.2 mi NW 15.0 mph - N/A Rain Light Rain
12:55 PM 39.2 °F 30.8 °F 39.2 °F 100% 30.07 in 0.2 mi NW 15.0 mph 20.7 mph N/A Fog Fog
1:15 PM 39.2 °F 30.5 °F 39.2 °F 100% 30.07 in 0.2 mi NW 16.1 mph 20.7 mph N/A Fog Fog
1:35 PM 37.4 °F 28.2 °F 37.4 °F 100% 30.07 in 0.2 mi NW 16.1 mph - N/A Fog Fog
1:55 PM 39.2 °F 30.8 °F 39.2 °F 100% 30.06 in 0.2 mi NW 15.0 mph - N/A Fog Fog
2:15 PM 39.2 °F 30.8 °F 39.2 °F 100% 30.05 in 0.5 mi NW 15.0 mph - N/A Fog Fog
2:35 PM 41.0 °F 32.5 °F 41.0 °F 100% 30.05 in 2.5 mi NW 17.3 mph 21.9 mph N/A   Mostly Cloudy
2:55 PM 41.0 °F 32.5 °F 41.0 °F 100% 30.04 in 5.0 mi NW 17.3 mph - N/A   Mostly Cloudy
3:15 PM 41.0 °F 32.5 °F 41.0 °F 100% 30.04 in 5.0 mi NNW 17.3 mph - N/A   Overcast
3:35 PM 41.0 °F 32.2 °F 39.2 °F 93% 30.03 in 5.0 mi NW 18.4 mph 21.9 mph N/A   Overcast
3:55 PM 42.8 °F 35.8 °F 37.4 °F 81% 30.03 in 7.0 mi NW 13.8 mph 20.7 mph N/A   Overcast
4:15 PM 42.8 °F 34.8 °F 37.4 °F 81% 30.03 in 7.0 mi NW 17.3 mph - N/A   Overcast
4:35 PM 44.6 °F 37.8 °F 37.4 °F 76% 30.02 in 7.0 mi WNW 15.0 mph 20.7 mph N/A   Overcast
4:55 PM 44.6 °F 38.1 °F 37.4 °F 76% 30.02 in 7.0 mi WNW 13.8 mph 20.7 mph N/A   Overcast
5:15 PM 44.6 °F 37.4 °F 35.6 °F 71% 30.02 in 7.0 mi WNW 16.1 mph 21.9 mph N/A   Overcast
5:35 PM 42.8 °F 35.1 °F 35.6 °F 76% 30.01 in 7.0 mi WNW 16.1 mph 24.2 mph N/A   Overcast
5:55 PM 42.8 °F 34.3 °F 35.6 °F 76% 30.02 in 7.0 mi WNW 19.6 mph 23.0 mph N/A   Overcast
6:35 PM 42.8 °F 35.1 °F 35.6 °F 76% 30.02 in 7.0 mi WNW 16.1 mph 21.9 mph N/A   Overcast
6:55 PM 42.8 °F 34.8 °F 35.6 °F 76% 30.02 in 7.0 mi West 17.3 mph 21.9 mph N/A   Overcast
7:15 PM 42.8 °F 34.8 °F 33.8 °F 70% 30.01 in 7.0 mi West 17.3 mph - N/A   Overcast
7:35 PM 41.0 °F 31.9 °F 33.8 °F 76% 30.01 in 8.0 mi West 19.6 mph - N/A   Overcast
7:55 PM 41.0 °F 31.9 °F 33.8 °F 76% 30.02 in 8.0 mi West 19.6 mph 26.5 mph N/A   Overcast
8:15 PM 41.0 °F 32.2 °F 35.6 °F 81% 30.02 in 8.0 mi West 18.4 mph 27.6 mph N/A   Overcast
8:35 PM 41.0 °F 31.9 °F 35.6 °F 81% 30.02 in 7.0 mi WNW 19.6 mph 24.2 mph N/A   Overcast
8:55 PM 41.0 °F 32.5 °F 39.2 °F 93% 30.03 in 5.0 mi WNW 17.3 mph - N/A   Overcast
9:15 PM 41.0 °F 31.6 °F 39.2 °F 93% 30.04 in 5.0 mi WNW 20.7 mph - N/A   Overcast
9:35 PM 41.0 °F 32.2 °F 39.2 °F 93% 30.04 in 5.0 mi NW 18.4 mph 24.2 mph N/A   Overcast
9:55 PM 39.2 °F 29.0 °F 37.4 °F 93% 30.04 in 6.0 mi NW 21.9 mph 28.8 mph N/A   Overcast
10:15 PM 39.2 °F 30.2 °F 37.4 °F 93% 30.04 in 6.0 mi NW 17.3 mph 26.5 mph N/A   Overcast
10:35 PM 39.2 °F 30.5 °F 37.4 °F 93% 30.03 in 5.0 mi NW 16.1 mph 25.3 mph N/A   Overcast
10:55 PM 39.2 °F 29.8 °F 37.4 °F 93% 30.03 in 7.0 mi NW 18.4 mph 25.3 mph N/A   Overcast
11:15 PM 39.2 °F 29.3 °F 32.0 °F 75% 30.03 in 9.0 mi NW 20.7 mph 26.5 mph N/A   Overcast
11:35 PM 39.2 °F 29.8 °F 26.6 °F 61% 30.03 in 10.0 mi NW 18.4 mph 26.5 mph N/A   Overcast
11:55 PM 39.2 °F 29.6 °F 19.4 °F 45% 30.02 in 10.0 mi WNW 19.6 mph 28.8 mph N/A   Mostly Cloudy